Location: Brusselsch Zeekanaal
(50.8667°N, 4.3667°E)
Time: 06:59:45
(UTC+00:00)

SJ 16-02 - Pass Details

Date: 08 November 2025
Orbit: 585 x 594 km, 75.0° (Epoch: 12 December)

Event Time Altitude Azimuth Distance (km) Brightness Sun altitude
Exits shadow 04:25:31 - 351° (N) 2,355 4.3 -22.4°
Reaches altitude 10° 04:26:47 10° 0° (N) 1,938 3.9 -22.2°
Maximum altitude 04:30:13 23° 53° (NE) 1,297 3.6 -21.6°
Drops below altitude 10° 04:33:37 10° 106° (ESE) 1,923 5.0 -21.1°
Sets 04:36:13 0° 121° (ESE) 2,817 5.8 -20.7°
